Weather observations for the past three days for
Moss Point - Trent Lott International Airport
Imperial (Metric)
Date Time (cdt) Wind (mph) Vis. (mi.) Weather Sky Cond. Temperature (ºF) Relative Humidity Wind Chill (°F) Heat Index (°F) Pressure Precipitation (in)
Air Dwpt 6 hour altimeter (in) sea level (mb) 1 hr 3 hr 6 hr
Max. Min.
14 17:53 Calm 10.00 Fair CLR 90 78.1 68% 105 30.06 1018.0
14 16:53 Calm 10.00 Mostly Cloudy SCT024 BKN031 91.9 79 66% 109 30.07 1018.2
14 15:53 Vrbl 7 10.00 Mostly Cloudy SCT034 BKN044 BKN070 93.9 80.1 64% 113 30.07 1018.4
14 14:53 Calm 10.00 Fair CLR 95 77 56% 110 30.07 1018.5
14 13:53 Calm 10.00 Mostly Cloudy BKN035 93.9 77 58% 108 30.1 1019.4
14 12:53 Calm 10.00 A Few Clouds FEW030 93.9 78.1 95 79 60% 110 30.12 1020.2
14 11:53 Calm 10.00 Fair CLR 91.9 80.1 68% 111 30.14 1020.9
14 10:53 Calm 10.00 Fair CLR 89.1 78.1 70% 103 30.16 1021.4
14 09:53 Calm 10.00 Fair CLR 87.1 77 72% 99 30.16 1021.3
14 08:53 N 5 10.00 Fair CLR 84 77 80% 94 30.16 1021.3
14 07:53 Calm 10.00 Fair CLR 81 75 82% 87 30.15 1021.1
14 06:53 Calm 10.00 Fair CLR 79 75 79 75.9 88% 83 30.14 1020.6
14 05:53 Calm 8.00 Fair CLR 75.9 73 91% 76 30.12 1020.1
14 04:53 Calm 10.00 Fair CLR 77 73 88% 78 30.11 1019.7
14 03:53 Calm 10.00 Fair CLR 77 73 88% 78 30.1 1019.2
14 02:53 Calm 10.00 Fair CLR 77 73 88% 78 30.09 1019.1
14 01:53 Calm 8.00 Fair CLR 78.1 73.9 87% 81 30.11 1019.6
14 00:53 Calm 10.00 Fair CLR 78.1 73.9 84.9 78.1 87% 81 30.13 1020.4
13 23:53 Calm 10.00 Fair CLR 78.1 73.9 87% 81 30.15 1021.0
13 22:53 Calm 10.00 Fair CLR 78.1 73.9 87% 81 30.16 1021.4
13 21:53 Calm 10.00 Fair CLR 79 73.9 85% 83 30.16 1021.5
13 20:53 Calm 10.00 Fair CLR 80.1 75 85% 85 30.15 1021.2
13 19:53 Calm 10.00 Fair CLR 82 75 79% 89 30.14 1020.7
13 18:53 Calm 10.00 Fair CLR 84 73.9 93.9 84 72% 91 30.12 1020.1 0.02
13 17:53 W 3 10.00 Fair CLR 87.1 73.9 65% 95 30.13 1020.5
13 16:53 Vrbl 3 10.00 Fair CLR 89.1 75 63% 99 30.13 1020.4
13 15:53 Vrbl 5 10.00 Thunderstorm in Vicinity BKN035 BKN050 91.9 77 62% 106 30.12 1020.1 0.02
13 14:53 Vrbl 7 10.00 Thunderstorm in Vicinity FEW045 SCT050 91.9 78.1 64% 107 30.14 1020.7
13 13:53 SE 13 G 25 10.00 Thunderstorm SCT036 BKN045 BKN055 86 73 65% 93 30.17 1021.8 0.02
13 12:53 Calm 10.00 Mostly Cloudy BKN038 93.9 75.9 97 80.1 56% 107 30.16 1021.5
13 11:53 Calm 10.00 Mostly Cloudy SCT039 BKN047 95 75 53% 107 30.17 1021.8
13 10:53 Vrbl 6 10.00 Partly Cloudy FEW035 SCT042 96.1 75.9 52% 110 30.18 1022.1
13 09:53 Vrbl 5 10.00 Fair CLR 91.9 77 62% 106 30.18 1022.2
13 08:53 Vrbl 5 10.00 Fair CLR 90 78.1 68% 105 30.18 1022.0
13 07:53 Calm 10.00 Fair CLR 84.9 77 77% 95 30.17 1021.8
13 06:53 Calm 10.00 A Few Clouds FEW095 80.1 75.9 80.1 77 87% 85 30.15 1021.2
13 05:53 Calm 10.00 Fair CLR 77 73 88% 78 30.14 1020.6
13 04:53 Calm 9.00 Fair CLR 77 73 88% 78 30.11 1019.8
13 03:53 Calm 10.00 Fair CLR 77 73.9 90% 78 30.1 1019.5
13 02:53 Calm 10.00 Fair CLR 77 73 88% 78 30.09 1019.1
13 01:53 Calm 10.00 Fair CLR 77 73 88% 78 30.1 1019.4
13 00:53 Calm 10.00 Fair CLR 78.1 73.9 89.1 77 87% 81 30.11 1019.7
12 22:53 Calm 10.00 Fair CLR 81 73 77% 86 30.12 1020.0
12 21:53 NE 3 10.00 Fair CLR 81 73.9 79% 86 30.12 1020.0
12 20:53 N 5 10.00 A Few Clouds FEW050 82.9 75 77% 90 30.12 1019.9
12 19:53 Calm 10.00 Fair CLR 84.9 75.9 75% 94 30.09 1019.1
12 18:53 S 5 10.00 Fair CLR 89.1 75 95 82.9 63% 99 30.07 1018.5
12 17:53 Vrbl 5 10.00 Fair CLR 91 73.9 57% 101 30.06 1018.0
12 16:53 Vrbl 5 10.00 Fair CLR 93 75.9 58% 106 30.05 1017.7
12 15:53 S 7 10.00 Fair CLR 93 77 60% 107 30.05 1017.8
12 14:53 Vrbl 3 10.00 Mostly Cloudy BKN090 93 77 60% 107 30.07 1018.3
12 13:53 W 5 10.00 Light Rain FEW031 SCT075 OVC090 86 75 70% 95 30.1 1019.3
12 12:53 Vrbl 6 10.00 Mostly Cloudy BKN085 BKN110 89.1 78.1 93.9 78.1 70% 103 30.1 1019.5
12 11:53 SE 6 10.00 A Few Clouds FEW100 91.9 77 62% 106 30.1 1019.5
12 10:53 Vrbl 3 10.00 Partly Cloudy SCT029 93 77 60% 107 30.09 1019.2
12 09:53 Calm 10.00 Mostly Cloudy SCT023 BKN032 91 77 64% 105 30.09 1019.1
12 08:53 Vrbl 5 10.00 Fair CLR 89.1 77 68% 102 30.09 1019.0
12 07:53 Calm 10.00 Fair CLR 84 77 80% 94 30.07 1018.3
12 06:53 Calm 10.00 Fair CLR 78.1 73.9 78.1 75.9 87% 81 30.05 1017.8
12 05:53 Calm 8.00 A Few Clouds FEW018 75.9 72 88% 76 30.04 1017.5
12 04:53 Calm 9.00 A Few Clouds FEW100 77 73 88% 78 30.03 1017.0
12 02:53 Calm 9.00 Fair CLR 75.9 73 91% 76 30.01 1016.4
12 01:53 Calm 9.00 Fair CLR 77 73 88% 78 30.02 1016.5
12 00:53 N 3 10.00 Fair CLR 78.1 73 87.1 77 85% 81 30.02 1016.8
11 23:53 Calm 10.00 Fair CLR 78.1 73.9 87% 81 30.02 1016.8
11 22:53 Calm 10.00 Fair CLR 79 73.9 85% 83 30.02 1016.8
11 21:53 Calm 10.00 A Few Clouds FEW120 79 75 88% 83 30.01 1016.4
11 20:53 Calm 10.00 A Few Clouds FEW120 80.1 75 85% 85 30.02 1016.6
11 19:53 Calm 10.00 Fair CLR 84 73.9 72% 91 30.01 1016.5
11 18:53 Vrbl 3 10.00 A Few Clouds FEW110 87.1 73.9 93.9 87.1 65% 95 30.01 1016.3
Date Time (cdt) Wind (mph) Vis. (mi.) Weather Sky Cond. Air Dwpt Max. Min. Relative Humidity Wind Chill (°F) Heat Index (°F) altimeter (in) sea level (mb) 1 hr 3 hr 6 hr
6 hour
Temperature (ºF) Pressure Precipitation (in)